Voltar ao catálogo

P 76-5

AtivoCiênciaSSO
NORAD 8860·PAYLOAD·🇺🇸 United States

Lançado May 22, 1976 de Vandenberg Space Force Base

Loading…

Próximas Passagens (próximas 24 horas)

TLE

AtualizadoSource: Space-Track

Época: Sep 14, 2026, 14:43 UTC

1 08860U 76047A   26257.61333212  .00000060  00000-0  12459-3 0  9999
2 08860  99.8918 113.1398 0042096 129.5326 238.8131 13.68318104508625

Acompanhe P 76-5 em tempo real com AllMySat

Download on the App Store